Regional Weather Roundup
Issued by NWS

Home | Current Version | Previous Version | Text Only | Print | Product List | Glossary On
Versions: 1 2 3 4 5 6 7 8 9 10 11 12 13 14 15 16 17 18 19 20 21 22 23 24 25 26 27 28 29 30 31 32 33 34 35 36 37 38 39 40 41 42 43 44 45 46 47 48 49 50
899
ASUS43 KDMX 051506
RWRIA

WEATHER ROUNDUP FOR IOWA
NATIONAL WEATHER SERVICE DES MOINES IA
900 AM CST MON DEC 05 2016

NOTE: "FAIR" INDICATES FEW OR NO CLOUDS BELOW 12,000 FEET WITH NO
SIGNIFICANT WEATHER AND/OR OBSTRUCTIONS TO VISIBILITY.

* - THESE STATIONS ARE NOT NWS STATIONS...THUS NOT UNDER NWS
QUALITY CONTROL.  THEY ALSO DO NOT REPORT WEATHER SUCH
AS PRECIPITATION OR FOG.

IAZ001>003-012>014-020>022-031>034-043>046-051600-
   NORTHWEST IOWA

CITY           SKY/WX    TMP DP  RH WIND       PRES   REMARKS
CARROLL *      CLOUDY    37  34  87 S13       29.76S WCI  29
CHEROKEE *     CLOUDY    37  32  82 S14       29.69S WCI  28
DENISON *      CLOUDY    36  30  80 S16G25    29.71S WCI  26
LE MARS *      CLOUDY    37  32  81 S13       29.65F WCI  29
ORANGE CITY *  CLOUDY    36  32  87 S14       29.63S WCI  27
SHELDON *      CLOUDY    36  34  93 S13G18    29.63S WCI  27
SIOUX CITY     MOSUNNY   40  30  67 S14       29.66F WCI  32
SPENCER        CLOUDY    36  31  82 S17       29.67F WCI  26
STORM LAKE *   CLOUDY    36  32  87 S17       29.69F WCI  25
$$

IAZ055>058-069>071-079>083-090>094-051600-
   SOUTHWEST IOWA

CITY           SKY/WX    TMP DP  RH WIND       PRES   REMARKS
ATLANTIC *     MOSUNNY   37  32  81 S14       29.78F WCI  29
AUDUBON *      CLOUDY    37  32  81 S12G17    29.77F WCI  30
CLARINDA *       N/A     36  36 100 S10       29.84F WCI  28
COUNCIL BLFS * SUNNY     36  32  87 S16       29.75F WCI  26
CRESTON *      SUNNY     36  34  93 S17       29.83F WCI  25
HARLAN  *      MOSUNNY   36  34  93 S9        29.79F WCI  29
LAMONI         PTSUNNY   32  32 100 S9        29.86F FOG     WCI  24
RED OAK *      SUNNY     36  34  93 S9        29.80F WCI  29
SHENANDOAH *   SUNNY     37  34  87 S12G18    29.81S WCI  30
$$

IAZ047>049-059>061-072>074-084-051600-
   CENTRAL IOWA

CITY           SKY/WX    TMP DP  RH WIND       PRES   REMARKS
AMES           CLOUDY    32  32 100 SE8       29.83F FOG     WCI  25
ANKENY *       CLOUDY    34 N/A N/A S10       29.86S WCI  26
BOONE *        CLOUDY    32  32 100 S12       29.80S WCI  23
CHARITON *       N/A     34  34 100 S10       29.87S FOG     WCI  26
DES MOINES     CLOUDY    34  32  92 S10       29.85S WCI  26
GRINNELL*      FOG       32  32 100 SE7       29.88S VSB<1/4 WCI  26
KNOXVILLE *    CLOUDY    34  34 100 S9        29.86F WCI  26
MARSHALLTOWN   FOG       32  32 100 SE10      29.85F VSB 1/2 WCI  24
NEWTON *       FOG       32  32 100 SE14      29.86S VSB<1/4 WCI  22
PELLA *          N/A     33  33  99 S12       29.89F FOG     WCI  25
PERRY *          N/A     34  33  96 S13       29.81S WCI  25
$$

IAZ004>006-015-016-023>025-035-036-051600-
   NORTH CENTRAL IOWA

CITY           SKY/WX    TMP DP  RH WIND       PRES   REMARKS
ALGONA *       CLOUDY    36  32  87 S15       29.73S WCI  26
CLARION *      CLOUDY    34  34 100 SE13      29.77F WCI  25
ESTHERVILLE    CLOUDY    34  32  92 S15       29.68F WCI  24
FORT DODGE *   CLOUDY    36  28  75 S9        29.78R WCI  29
MASON CITY     CLOUDY    31  30  96 S12       29.82S FOG     WCI  22
FOREST CITY *  PTSUNNY   32  32 100 SE12      29.76F WCI  23
WEBSTER CITY * CLOUDY    34  34 100 S15       29.77S WCI  24
IOWA FALLS *   CLOUDY    32  32  99 SE12      29.83F FOG     WCI  23
$$

IAZ007>011-017>019-026>030-037>042-050>054-066-051600-
   NORTHEAST IOWA

CITY           SKY/WX    TMP DP  RH WIND       PRES   REMARKS
CEDAR RAPIDS   FOG       31  31 100 S9        29.91S VSB 1/4 WCI  23
CHARLES CITY * FOG       32  32 100 SE14      29.85S VSB<1/4 WCI  22
CLINTON *      MIX PCPN  32  31  96 SE13      29.98S VSB 1/4 WCI  22
DECORAH *      FOG       32  32 100 VRB7G13   29.86F VSB<1/4 WCI  26
DUBUQUE        SNOW      30  30 100 S13       29.92F VSB 1/4 WCI  20
MONTICELLO *   FOG       32  32 100 SE9       29.92F VSB<1/4 WCI  24
OELWEIN *      FOG       32  32 100 S14       29.89R VSB<1/4 WCI  22
WATERLOO       CLOUDY    32  31  96 S12       29.88S FOG     WCI  23
$$

IAZ064-065-067-068-078-051600-
   EAST CENTRAL IOWA

CITY           SKY/WX    TMP DP  RH WIND       PRES   REMARKS
DAVENPORT      FOG       31  30  96 SE16      29.97S VSB 1/4 WCI  20
IOWA CITY      FOG       32  31  96 SE10      29.95S VSB 1/4 WCI  24
MUSCATINE *    FOG       32  32 100 S13       29.97S VSB<1/4 WCI  22
QUAD CITIES    FOG       32  30  92 SE8       29.98S VSB 1/2 WCI  25
$$

IAZ062-063-075>077-085>089-095>099-051600-
   SOUTHEAST IOWA

CITY           SKY/WX    TMP DP  RH WIND       PRES   REMARKS
BURLINGTON     FOG       31  31 100 SE12      29.97F VSB 1/4 WCI  22
FAIRFIELD *    FOG       32  32 100 S12G18    29.94R VSB<1/4 WCI  23
FORT MADISON * FOG       32  32 100 S10G20    29.99R VSB<1/4 WCI  24
KEOKUK *       FOG       32  32 100 S8        29.99R VSB<1/4 WCI  25
OSKALOOSA *    FOG       32  32  99 S13       29.92S VSB<1/4 WCI  22
CENTERVILLE *  FOG       32  32 100 SE9       29.92F VSB 3/4 WCI  24
OTTUMWA        FOG       32  31  96 S15       29.92R VSB 1/4 WCI  22
WASHINGTON *   FOG       30  30 100 S15G21    29.95S VSB<1/4 WCI  19
$$

ABBREVIATIONS USED IN REMARKS
   TC - TEMPERATURES IN CELSIUS
  WCI - WIND CHILL INDEX
   HX - HEAT INDEX
  VSB - VISIBILITY
$$





USA.gov is the U.S. government's official web portal to all federal, state and local government web resources and services.